Time,TemperatureF,DewpointF,PressureIn,WindDirection,WindDirectionDegrees,WindSpeedMPH,WindSpeedGustMPH,Humidity,HourlyPrecipIn,Conditions,Clouds,dailyrainin,SoftwareType,DateUTC
2013-05-31 00:01:00,68.8,67.3,29.96,SE,133,0.0,1.0,95,0.00,,,0.13,Wunderground v.1.15,2013-05-31 05:01:00,
2013-05-31 00:06:00,68.9,67.4,29.96,East,79,1.0,1.0,95,0.00,,,0.00,Wunderground v.1.15,2013-05-31 05:06:00,
2013-05-31 00:12:00,69.1,67.6,29.96,SE,139,1.0,1.0,95,0.00,,,0.00,Wunderground v.1.15,2013-05-31 05:12:00,
2013-05-31 00:18:00,69.3,67.8,29.95,SE,141,0.0,2.0,95,0.00,,,0.00,Wunderground v.1.15,2013-05-31 05:18:00,
2013-05-31 00:23:00,69.4,67.9,29.95,South,176,0.0,2.0,95,0.00,,,0.00,Wunderground v.1.15,2013-05-31 05:23:00,
2013-05-31 00:28:00,69.5,68.0,29.95,SSE,158,0.0,2.0,95,0.00,,,0.00,Wunderground v.1.15,2013-05-31 05:28:00,
2013-05-31 00:34:00,69.9,68.4,29.95,SSE,160,1.0,4.0,95,0.00,,,0.00,Wunderground v.1.15,2013-05-31 05:34:00,
2013-05-31 00:40:00,70.3,68.8,29.94,SSE,155,4.0,4.0,95,0.00,,,0.00,Wunderground v.1.15,2013-05-31 05:40:00,
2013-05-31 00:46:00,70.5,68.7,29.94,ENE,65,3.0,4.0,94,0.00,,,0.00,Wunderground v.1.15,2013-05-31 05:46:00,
2013-05-31 00:51:00,70.7,68.9,29.93,South,170,2.0,2.0,94,0.00,,,0.00,Wunderground v.1.15,2013-05-31 05:51:00,
2013-05-31 00:57:00,70.8,69.0,29.93,SSE,152,3.0,4.0,94,0.00,,,0.00,Wunderground v.1.15,2013-05-31 05:57:00,
2013-05-31 01:02:00,70.8,68.7,29.92,WSW,243,0.0,4.0,93,0.00,,,0.00,Wunderground v.1.15,2013-05-31 06:02:00,
2013-05-31 01:08:00,70.8,68.7,29.92,SSW,193,1.0,4.0,93,0.00,,,0.00,Wunderground v.1.15,2013-05-31 06:08:00,
2013-05-31 01:14:00,70.9,68.8,29.92,SSE,165,1.0,2.0,93,0.00,,,0.00,Wunderground v.1.15,2013-05-31 06:14:00,
2013-05-31 01:19:00,70.8,68.7,29.92,ESE,119,2.0,4.0,93,0.00,,,0.00,Wunderground v.1.15,2013-05-31 06:19:00,
2013-05-31 01:25:00,70.7,68.6,29.92,SSE,149,1.0,2.0,93,0.00,,,0.00,Wunderground v.1.15,2013-05-31 06:25:00,
2013-05-31 01:31:00,70.7,68.6,29.92,SSW,194,1.0,2.0,93,0.00,,,0.00,Wunderground v.1.15,2013-05-31 06:31:00,
2013-05-31 01:37:00,70.8,68.7,29.92,SSE,158,3.0,3.0,93,0.00,,,0.00,Wunderground v.1.15,2013-05-31 06:37:00,
2013-05-31 01:42:00,71.0,68.9,29.92,SSW,210,0.0,2.0,93,0.00,,,0.00,Wunderground v.1.15,2013-05-31 06:42:00,
2013-05-31 01:48:00,71.2,68.8,29.92,SSE,149,2.0,2.0,92,0.00,,,0.00,Wunderground v.1.15,2013-05-31 06:48:00,
2013-05-31 01:54:00,71.3,68.9,29.92,SSE,167,1.0,2.0,92,0.00,,,0.00,Wunderground v.1.15,2013-05-31 06:54:00,
2013-05-31 02:00:00,71.4,69.0,29.92,SSE,159,0.0,1.0,92,0.00,,,0.00,Wunderground v.1.15,2013-05-31 07:00:00,
2013-05-31 02:05:00,71.4,69.0,29.92,SW,229,0.0,7.0,92,0.00,,,0.00,Wunderground v.1.15,2013-05-31 07:05:00,
2013-05-31 02:10:00,71.4,69.0,29.92,SSE,149,0.0,1.0,92,0.00,,,0.00,Wunderground v.1.15,2013-05-31 07:10:00,
2013-05-31 02:15:00,71.4,69.0,29.93,SSW,205,1.0,3.0,92,0.00,,,0.00,Wunderground v.1.15,2013-05-31 07:15:00,
2013-05-31 02:20:00,71.4,69.0,29.93,NE,50,0.0,1.0,92,0.00,,,0.00,Wunderground v.1.15,2013-05-31 07:20:00,
2013-05-31 02:25:00,71.4,69.0,29.93,SE,134,0.0,2.0,92,0.00,,,0.00,Wunderground v.1.15,2013-05-31 07:25:00,
2013-05-31 02:30:00,71.3,68.9,29.93,South,191,1.0,1.0,92,0.00,,,0.00,Wunderground v.1.15,2013-05-31 07:30:00,
2013-05-31 02:35:00,71.3,68.9,29.93,SW,217,2.0,4.0,92,0.00,,,0.00,Wunderground v.1.15,2013-05-31 07:35:00,
2013-05-31 02:40:00,71.3,68.9,29.93,South,188,1.0,1.0,92,0.00,,,0.00,Wunderground v.1.15,2013-05-31 07:40:00,
2013-05-31 02:45:00,71.3,68.9,29.92,SE,145,2.0,2.0,92,0.00,,,0.00,Wunderground v.1.15,2013-05-31 07:45:00,
2013-05-31 02:50:00,71.4,69.0,29.93,SE,137,0.0,1.0,92,0.00,,,0.00,Wunderground v.1.15,2013-05-31 07:50:00,
2013-05-31 02:55:00,71.4,69.0,29.93,SW,236,0.0,3.0,92,0.00,,,0.00,Wunderground v.1.15,2013-05-31 07:55:00,
2013-05-31 03:00:00,71.5,68.7,29.93,SW,222,1.0,1.0,91,0.00,,,0.00,Wunderground v.1.15,2013-05-31 08:00:00,
2013-05-31 03:05:00,71.5,68.7,29.93,SSW,211,0.0,5.0,91,0.00,,,0.00,Wunderground v.1.15,2013-05-31 08:05:00,
2013-05-31 03:10:00,71.6,68.8,29.94,SW,228,1.0,2.0,91,0.00,,,0.00,Wunderground v.1.15,2013-05-31 08:10:00,
2013-05-31 03:15:00,71.6,68.8,29.94,SSW,201,0.0,3.0,91,0.00,,,0.00,Wunderground v.1.15,2013-05-31 08:15:00,
2013-05-31 03:20:00,71.6,68.8,29.94,West,271,0.0,3.0,91,0.00,,,0.00,Wunderground v.1.15,2013-05-31 08:20:00,
2013-05-31 03:25:00,71.7,68.9,29.94,WNW,286,1.0,3.0,91,0.00,,,0.00,Wunderground v.1.15,2013-05-31 08:25:00,
2013-05-31 03:30:00,71.7,68.9,29.94,WSW,245,1.0,1.0,91,0.00,,,0.00,Wunderground v.1.15,2013-05-31 08:30:00,
2013-05-31 03:35:00,71.6,68.8,29.93,SW,222,0.0,3.0,91,0.00,,,0.00,Wunderground v.1.15,2013-05-31 08:35:00,
2013-05-31 03:40:00,71.6,68.8,29.93,WSW,243,0.0,1.0,91,0.00,,,0.01,Wunderground v.1.15,2013-05-31 08:40:00,
2013-05-31 03:45:00,71.5,68.7,29.93,West,259,1.0,4.0,91,0.00,,,0.01,Wunderground v.1.15,2013-05-31 08:45:00,
2013-05-31 03:50:00,71.5,68.7,29.93,WSW,248,2.0,2.0,91,0.00,,,0.01,Wunderground v.1.15,2013-05-31 08:50:00,
2013-05-31 03:55:00,71.5,68.7,29.93,SSE,165,1.0,5.0,91,0.00,,,0.01,Wunderground v.1.15,2013-05-31 08:55:00,
2013-05-31 04:00:00,71.4,68.6,29.93,SW,219,0.0,3.0,91,0.00,,,0.01,Wunderground v.1.15,2013-05-31 09:00:00,
2013-05-31 04:05:00,71.4,69.0,29.93,South,181,2.0,4.0,92,0.00,,,0.01,Wunderground v.1.15,2013-05-31 09:05:00,
2013-05-31 04:10:00,71.3,68.9,29.93,SSW,208,2.0,9.0,92,0.00,,,0.02,Wunderground v.1.15,2013-05-31 09:10:00,
2013-05-31 04:15:00,71.6,68.8,29.92,SW,232,1.0,9.0,91,0.00,,,0.02,Wunderground v.1.15,2013-05-31 09:15:00,
2013-05-31 04:20:00,71.6,68.8,29.93,WSW,240,2.0,4.0,91,0.00,,,0.02,Wunderground v.1.15,2013-05-31 09:20:00,
2013-05-31 04:25:00,71.6,68.8,29.93,SE,143,2.0,7.0,91,0.00,,,0.02,Wunderground v.1.15,2013-05-31 09:25:00,
2013-05-31 04:30:00,71.6,68.8,29.93,SW,222,5.0,5.0,91,0.00,,,0.02,Wunderground v.1.15,2013-05-31 09:30:00,
2013-05-31 04:35:00,71.9,68.8,29.93,SW,215,7.0,12.0,90,0.00,,,0.02,Wunderground v.1.15,2013-05-31 09:35:00,
2013-05-31 04:40:00,71.9,68.8,29.93,SSE,150,3.0,4.0,90,0.00,,,0.02,Wunderground v.1.15,2013-05-31 09:40:00,
2013-05-31 04:45:00,71.9,68.8,29.93,SSW,211,4.0,9.0,90,0.00,,,0.02,Wunderground v.1.15,2013-05-31 09:45:00,
2013-05-31 04:51:00,71.9,68.8,29.93,WSW,257,5.0,9.0,90,0.00,,,0.02,Wunderground v.1.15,2013-05-31 09:51:00,
2013-05-31 04:56:00,72.0,68.9,29.94,SW,222,7.0,9.0,90,0.00,,,0.02,Wunderground v.1.15,2013-05-31 09:56:00,
2013-05-31 05:01:00,72.1,69.0,29.94,WSW,238,2.0,4.0,90,0.00,,,0.02,Wunderground v.1.15,2013-05-31 10:01:00,
2013-05-31 05:06:00,72.1,69.0,29.94,WSW,245,2.0,7.0,90,0.00,,,0.02,Wunderground v.1.15,2013-05-31 10:06:00,
2013-05-31 05:11:00,72.0,68.9,29.95,WSW,238,1.0,3.0,90,0.00,,,0.02,Wunderground v.1.15,2013-05-31 10:11:00,
2013-05-31 05:16:00,72.0,69.2,29.95,WNW,292,2.0,4.0,91,0.00,,,0.02,Wunderground v.1.15,2013-05-31 10:16:00,
2013-05-31 05:21:00,72.0,69.2,29.95,WSW,238,2.0,5.0,91,0.00,,,0.02,Wunderground v.1.15,2013-05-31 10:21:00,
2013-05-31 05:26:00,72.0,69.2,29.96,WSW,256,3.0,8.0,91,0.00,,,0.02,Wunderground v.1.15,2013-05-31 10:26:00,
2013-05-31 05:31:00,72.0,69.2,29.96,South,177,1.0,3.0,91,0.00,,,0.02,Wunderground v.1.15,2013-05-31 10:31:00,
2013-05-31 05:36:00,72.0,69.2,29.96,SW,229,2.0,5.0,91,0.00,,,0.02,Wunderground v.1.15,2013-05-31 10:36:00,
2013-05-31 05:41:00,71.9,69.1,29.97,SW,229,3.0,9.0,91,0.00,,,0.02,Wunderground v.1.15,2013-05-31 10:41:00,
2013-05-31 05:46:00,71.9,69.4,29.97,SSW,212,4.0,9.0,92,0.00,,,0.02,Wunderground v.1.15,2013-05-31 10:46:00,
2013-05-31 05:51:00,71.9,69.4,29.97,West,270,2.0,3.0,92,0.00,,,0.02,Wunderground v.1.15,2013-05-31 10:51:00,
2013-05-31 05:56:00,71.8,69.3,29.97,WSW,246,1.0,4.0,92,0.00,,,0.02,Wunderground v.1.15,2013-05-31 10:56:00,
2013-05-31 06:01:00,71.8,69.3,29.97,WSW,245,3.0,3.0,92,0.00,,,0.02,Wunderground v.1.15,2013-05-31 11:01:00,
2013-05-31 06:06:00,71.8,69.0,29.97,WSW,248,2.0,7.0,91,0.00,,,0.02,Wunderground v.1.15,2013-05-31 11:06:00,
2013-05-31 06:11:00,71.8,69.0,29.97,South,177,1.0,5.0,91,0.00,,,0.02,Wunderground v.1.15,2013-05-31 11:11:00,
2013-05-31 06:16:00,71.8,69.0,29.97,SW,232,2.0,8.0,91,0.00,,,0.03,Wunderground v.1.15,2013-05-31 11:16:00,
2013-05-31 06:21:00,71.6,68.8,29.97,WSW,242,2.0,5.0,91,0.19,,,0.05,Wunderground v.1.15,2013-05-31 11:21:00,
2013-05-31 06:26:00,71.3,68.9,29.97,WSW,238,2.0,5.0,92,0.10,,,0.06,Wunderground v.1.15,2013-05-31 11:26:00,
2013-05-31 06:31:00,71.1,68.7,29.97,West,269,3.0,10.0,92,0.14,,,0.07,Wunderground v.1.15,2013-05-31 11:31:00,
2013-05-31 06:36:00,70.9,68.8,29.97,West,271,3.0,10.0,93,0.10,,,0.07,Wunderground v.1.15,2013-05-31 11:36:00,
2013-05-31 06:41:00,70.8,68.7,29.97,WSW,242,4.0,6.0,93,0.26,,,0.09,Wunderground v.1.15,2013-05-31 11:41:00,
2013-05-31 06:46:00,70.7,68.6,29.98,WSW,250,4.0,8.0,93,0.13,,,0.10,Wunderground v.1.15,2013-05-31 11:46:00,
2013-05-31 06:51:00,70.6,68.5,29.98,West,262,4.0,6.0,93,0.12,,,0.11,Wunderground v.1.15,2013-05-31 11:51:00,
2013-05-31 06:56:00,70.5,68.7,29.98,WSW,248,4.0,6.0,94,0.06,,,0.11,Wunderground v.1.15,2013-05-31 11:56:00,
2013-05-31 07:01:00,70.5,68.7,29.98,SW,222,1.0,4.0,94,0.04,,,0.11,Wunderground v.1.15,2013-05-31 12:01:00,
2013-05-31 07:06:00,70.4,68.6,29.98,SW,215,1.0,4.0,94,0.00,,,0.11,Wunderground v.1.15,2013-05-31 12:06:00,
2013-05-31 07:11:00,70.4,68.6,29.98,SW,232,2.0,5.0,94,0.00,,,0.11,Wunderground v.1.15,2013-05-31 12:11:00,
2013-05-31 07:16:00,70.3,68.5,29.98,West,262,4.0,5.0,94,0.00,,,0.12,Wunderground v.1.15,2013-05-31 12:16:00,
2013-05-31 07:21:00,70.3,68.8,29.98,WSW,248,0.0,3.0,95,0.00,,,0.12,Wunderground v.1.15,2013-05-31 12:21:00,
2013-05-31 07:26:00,70.3,68.8,29.98,West,276,3.0,4.0,95,0.00,,,0.12,Wunderground v.1.15,2013-05-31 12:26:00,
2013-05-31 07:31:00,70.3,68.8,29.98,SW,219,1.0,3.0,95,0.00,,,0.12,Wunderground v.1.15,2013-05-31 12:31:00,
2013-05-31 07:36:00,70.3,68.8,29.98,SW,235,2.0,3.0,95,0.00,,,0.12,Wunderground v.1.15,2013-05-31 12:36:00,
2013-05-31 07:41:00,70.3,68.8,29.98,SSW,207,4.0,4.0,95,0.00,,,0.13,Wunderground v.1.15,2013-05-31 12:41:00,
2013-05-31 07:46:00,70.2,68.7,29.98,SW,219,3.0,5.0,95,0.00,,,0.13,Wunderground v.1.15,2013-05-31 12:46:00,
2013-05-31 07:51:00,70.2,68.7,29.97,WNW,285,2.0,4.0,95,0.06,,,0.14,Wunderground v.1.15,2013-05-31 12:51:00,
2013-05-31 07:56:00,70.1,68.6,29.97,SW,219,0.0,5.0,95,0.06,,,0.14,Wunderground v.1.15,2013-05-31 12:56:00,
2013-05-31 08:02:00,70.1,68.6,29.96,SSE,167,2.0,5.0,95,0.07,,,0.15,Wunderground v.1.15,2013-05-31 13:02:00,
2013-05-31 08:07:00,70.1,68.6,29.96,SW,217,1.0,5.0,95,0.07,,,0.15,Wunderground v.1.15,2013-05-31 13:07:00,
2013-05-31 08:12:00,70.0,68.5,29.96,SW,223,1.0,2.0,95,0.05,,,0.16,Wunderground v.1.15,2013-05-31 13:12:00,
2013-05-31 08:17:00,70.0,68.5,29.95,SSE,153,0.0,2.0,95,0.05,,,0.16,Wunderground v.1.15,2013-05-31 13:17:00,
2013-05-31 08:22:00,69.9,68.7,29.95,SSE,150,0.0,1.0,96,0.05,,,0.16,Wunderground v.1.15,2013-05-31 13:22:00,
2013-05-31 08:27:00,69.9,68.7,29.95,SSW,204,0.0,1.0,96,0.05,,,0.17,Wunderground v.1.15,2013-05-31 13:27:00,
2013-05-31 08:32:00,69.9,68.7,29.94,SSE,151,0.0,1.0,96,0.05,,,0.17,Wunderground v.1.15,2013-05-31 13:32:00,
2013-05-31 08:37:00,69.9,68.7,29.94,SSE,147,0.0,1.0,96,0.05,,,0.18,Wunderground v.1.15,2013-05-31 13:37:00,
2013-05-31 08:42:00,69.8,68.6,29.94,South,183,0.0,1.0,96,0.05,,,0.18,Wunderground v.1.15,2013-05-31 13:42:00,
2013-05-31 08:47:00,69.8,68.6,29.94,WSW,238,0.0,1.0,96,0.07,,,0.19,Wunderground v.1.15,2013-05-31 13:47:00,
2013-05-31 08:52:00,69.7,68.5,29.94,SSW,194,1.0,2.0,96,0.09,,,0.20,Wunderground v.1.15,2013-05-31 13:52:00,
2013-05-31 08:57:00,69.7,68.5,29.94,South,176,0.0,2.0,96,0.17,,,0.21,Wunderground v.1.15,2013-05-31 13:57:00,
2013-05-31 09:02:00,69.7,68.5,29.94,ENE,72,0.0,2.0,96,0.15,,,0.23,Wunderground v.1.15,2013-05-31 14:02:00,
2013-05-31 09:07:00,69.7,68.5,29.94,SSE,167,2.0,3.0,96,0.16,,,0.24,Wunderground v.1.15,2013-05-31 14:07:00,
2013-05-31 09:12:00,69.8,68.6,29.93,SSE,148,2.0,3.0,96,0.10,,,0.25,Wunderground v.1.15,2013-05-31 14:12:00,
2013-05-31 09:17:00,69.8,68.6,29.93,SE,139,1.0,4.0,96,0.10,,,0.25,Wunderground v.1.15,2013-05-31 14:17:00,
2013-05-31 09:22:00,69.9,69.0,29.92,South,179,6.0,7.0,97,0.07,,,0.26,Wunderground v.1.15,2013-05-31 14:22:00,
2013-05-31 09:27:00,69.9,69.0,29.91,SW,219,5.0,7.0,97,0.07,,,0.26,Wunderground v.1.15,2013-05-31 14:27:00,
2013-05-31 09:32:00,70.0,68.8,29.91,SE,145,1.0,8.0,96,0.06,,,0.27,Wunderground v.1.15,2013-05-31 14:32:00,
2013-05-31 09:37:00,69.8,68.3,29.90,WNW,300,8.0,12.0,95,0.08,,,0.28,Wunderground v.1.15,2013-05-31 14:37:00,
2013-05-31 09:42:00,69.7,67.9,29.91,WSW,243,6.0,11.0,94,0.08,,,0.28,Wunderground v.1.15,2013-05-31 14:42:00,
2013-05-31 09:47:00,69.5,67.7,29.92,South,181,2.0,16.0,94,0.06,,,0.28,Wunderground v.1.15,2013-05-31 14:47:00,
2013-05-31 09:52:00,69.2,67.1,29.92,WNW,283,3.0,7.0,93,0.04,,,0.29,Wunderground v.1.15,2013-05-31 14:52:00,
2013-05-31 09:57:00,68.8,66.7,29.94,SW,224,4.0,11.0,93,0.04,,,0.29,Wunderground v.1.15,2013-05-31 14:57:00,
2013-05-31 10:02:00,68.4,66.3,29.94,SW,231,8.0,10.0,93,0.04,,,0.29,Wunderground v.1.15,2013-05-31 15:02:00,
2013-05-31 10:07:00,68.1,66.0,29.94,SSW,212,8.0,10.0,93,0.05,,,0.30,Wunderground v.1.15,2013-05-31 15:07:00,
2013-05-31 10:12:00,68.0,65.9,29.93,SW,236,7.0,11.0,93,0.05,,,0.30,Wunderground v.1.15,2013-05-31 15:12:00,
2013-05-31 10:17:00,67.9,65.8,29.92,SSW,204,5.0,11.0,93,0.05,,,0.31,Wunderground v.1.15,2013-05-31 15:17:00,
2013-05-31 10:22:00,67.8,66.0,29.93,West,274,1.0,12.0,94,0.05,,,0.31,Wunderground v.1.15,2013-05-31 15:22:00,
2013-05-31 10:27:00,67.9,66.1,29.92,SSW,211,3.0,12.0,94,0.05,,,0.31,Wunderground v.1.15,2013-05-31 15:27:00,
2013-05-31 10:32:00,68.0,66.2,29.92,SE,137,5.0,9.0,94,0.00,,,0.31,Wunderground v.1.15,2013-05-31 15:32:00,
2013-05-31 10:37:00,68.1,66.3,29.92,SSW,205,1.0,9.0,94,0.00,,,0.31,Wunderground v.1.15,2013-05-31 15:37:00,
2013-05-31 10:42:00,68.4,66.6,29.93,WSW,243,3.0,5.0,94,0.00,,,0.31,Wunderground v.1.15,2013-05-31 15:42:00,
2013-05-31 10:47:00,68.7,66.9,29.93,SSW,200,3.0,8.0,94,0.00,,,0.31,Wunderground v.1.15,2013-05-31 15:47:00,
2013-05-31 10:52:00,69.0,67.2,29.93,WSW,238,1.0,8.0,94,0.00,,,0.31,Wunderground v.1.15,2013-05-31 15:52:00,
2013-05-31 10:57:00,69.4,67.3,29.93,SSW,207,4.0,8.0,93,0.00,,,0.31,Wunderground v.1.15,2013-05-31 15:57:00,
2013-05-31 11:02:00,69.9,67.8,29.94,WSW,255,2.0,8.0,93,0.00,,,0.31,Wunderground v.1.15,2013-05-31 16:02:00,
2013-05-31 11:07:00,70.5,68.1,29.94,SW,231,4.0,9.0,92,0.00,,,0.31,Wunderground v.1.15,2013-05-31 16:07:00,
2013-05-31 11:12:00,71.2,68.8,29.94,WSW,256,1.0,6.0,92,0.00,,,0.31,Wunderground v.1.15,2013-05-31 16:12:00,
2013-05-31 11:17:00,71.6,68.8,29.95,SSW,205,1.0,6.0,91,0.00,,,0.31,Wunderground v.1.15,2013-05-31 16:17:00,
2013-05-31 11:22:00,71.8,68.4,29.95,WSW,245,4.0,11.0,89,0.00,,,0.31,Wunderground v.1.15,2013-05-31 16:22:00,
2013-05-31 11:27:00,72.0,68.6,29.95,SSE,158,3.0,11.0,89,0.00,,,0.31,Wunderground v.1.15,2013-05-31 16:27:00,
2013-05-31 11:32:00,72.2,68.8,29.95,West,264,1.0,12.0,89,0.00,,,0.31,Wunderground v.1.15,2013-05-31 16:32:00,
2013-05-31 11:37:00,72.4,68.6,29.95,SW,219,1.0,12.0,88,0.00,,,0.31,Wunderground v.1.15,2013-05-31 16:37:00,
2013-05-31 11:42:00,72.8,69.0,29.95,SSW,207,2.0,9.0,88,0.00,,,0.31,Wunderground v.1.15,2013-05-31 16:42:00,
2013-05-31 11:47:00,73.4,69.3,29.95,SW,231,6.0,9.0,87,0.00,,,0.31,Wunderground v.1.15,2013-05-31 16:47:00,
2013-05-31 11:52:00,73.8,69.3,29.95,West,262,4.0,12.0,86,0.00,,,0.31,Wunderground v.1.15,2013-05-31 16:52:00,
2013-05-31 11:57:00,74.4,69.9,29.95,WSW,252,6.0,12.0,86,0.00,,,0.31,Wunderground v.1.15,2013-05-31 16:57:00,
2013-05-31 12:02:00,75.0,69.8,29.95,SW,218,2.0,7.0,84,0.00,,,0.31,Wunderground v.1.15,2013-05-31 17:02:00,
2013-05-31 12:07:00,75.3,69.1,29.95,West,262,6.0,8.0,81,0.00,,,0.31,Wunderground v.1.15,2013-05-31 17:07:00,
2013-05-31 12:12:00,74.7,69.2,29.95,West,280,2.0,8.0,83,0.00,,,0.31,Wunderground v.1.15,2013-05-31 17:12:00,
2013-05-31 12:17:00,74.4,68.5,29.96,WSW,252,4.0,12.0,82,0.00,,,0.31,Wunderground v.1.15,2013-05-31 17:17:00,
2013-05-31 12:22:00,74.0,68.9,29.96,WNW,298,3.0,7.0,84,0.00,,,0.31,Wunderground v.1.15,2013-05-31 17:22:00,
2013-05-31 12:27:00,73.7,68.9,29.96,West,262,2.0,8.0,85,0.00,,,0.31,Wunderground v.1.15,2013-05-31 17:27:00,
2013-05-31 12:32:00,74.2,68.7,29.95,SW,215,4.0,11.0,83,0.00,,,0.31,Wunderground v.1.15,2013-05-31 17:32:00,
2013-05-31 12:37:00,74.9,69.4,29.95,South,179,4.0,13.0,83,0.00,,,0.31,Wunderground v.1.15,2013-05-31 17:37:00,
2013-05-31 12:43:00,75.1,68.9,29.95,South,184,3.0,11.0,81,0.00,,,0.31,Wunderground v.1.15,2013-05-31 17:43:00,
2013-05-31 12:48:00,75.5,69.3,29.95,West,269,2.0,11.0,81,0.00,,,0.31,Wunderground v.1.15,2013-05-31 17:48:00,
2013-05-31 12:53:00,75.9,69.6,29.95,SW,232,4.0,7.0,81,0.00,,,0.31,Wunderground v.1.15,2013-05-31 17:53:00,
2013-05-31 12:58:00,76.0,69.0,29.95,SSW,200,6.0,9.0,79,0.00,,,0.31,Wunderground v.1.15,2013-05-31 17:58:00,
2013-05-31 13:03:00,76.2,69.6,29.96,SSE,152,3.0,8.0,80,0.00,,,0.31,Wunderground v.1.15,2013-05-31 18:03:00,
2013-05-31 13:08:00,76.3,68.6,29.95,SSW,210,5.0,11.0,77,0.00,,,0.31,Wunderground v.1.15,2013-05-31 18:08:00,
2013-05-31 13:13:00,76.1,68.7,29.96,WNW,283,2.0,6.0,78,0.00,,,0.31,Wunderground v.1.15,2013-05-31 18:13:00,
2013-05-31 13:18:00,76.2,68.8,29.95,South,191,4.0,8.0,78,0.00,,,0.31,Wunderground v.1.15,2013-05-31 18:18:00,
2013-05-31 13:23:00,76.1,68.4,29.95,WSW,245,1.0,10.0,77,0.00,,,0.31,Wunderground v.1.15,2013-05-31 18:23:00,
2013-05-31 13:28:00,76.1,68.4,29.95,WSW,252,2.0,10.0,77,0.00,,,0.31,Wunderground v.1.15,2013-05-31 18:28:00,
2013-05-31 13:33:00,76.2,68.5,29.95,West,269,1.0,10.0,77,0.00,,,0.31,Wunderground v.1.15,2013-05-31 18:33:00,
2013-05-31 13:38:00,76.2,68.8,29.95,SW,236,1.0,10.0,78,0.00,,,0.31,Wunderground v.1.15,2013-05-31 18:38:00,
2013-05-31 13:43:00,76.7,69.3,29.95,WSW,248,4.0,5.0,78,0.00,,,0.31,Wunderground v.1.15,2013-05-31 18:43:00,
2013-05-31 13:48:00,76.8,68.7,29.95,SSW,200,5.0,7.0,76,0.00,,,0.31,Wunderground v.1.15,2013-05-31 18:48:00,
2013-05-31 13:53:00,76.6,68.8,29.95,SE,124,2.0,7.0,77,0.00,,,0.31,Wunderground v.1.15,2013-05-31 18:53:00,
2013-05-31 13:58:00,76.5,69.1,29.95,SSW,212,3.0,9.0,78,0.00,,,0.31,Wunderground v.1.15,2013-05-31 18:58:00,
2013-05-31 14:03:00,76.6,69.2,29.95,West,265,0.0,4.0,78,0.00,,,0.31,Wunderground v.1.15,2013-05-31 19:03:00,
2013-05-31 14:08:00,76.8,69.8,29.95,SSW,212,1.0,4.0,79,0.00,,,0.31,Wunderground v.1.15,2013-05-31 19:08:00,
2013-05-31 14:13:00,77.1,70.1,29.96,South,188,2.0,4.0,79,0.00,,,0.31,Wunderground v.1.15,2013-05-31 19:13:00,
2013-05-31 14:18:00,77.6,70.6,29.96,SW,215,4.0,8.0,79,0.00,,,0.31,Wunderground v.1.15,2013-05-31 19:18:00,
2013-05-31 14:23:00,77.7,70.7,29.95,South,170,4.0,7.0,79,0.00,,,0.31,Wunderground v.1.15,2013-05-31 19:23:00,
2013-05-31 14:28:00,78.1,71.1,29.95,SSE,165,4.0,7.0,79,0.00,,,0.31,Wunderground v.1.15,2013-05-31 19:28:00,
2013-05-31 14:33:00,78.0,71.0,29.95,South,169,3.0,8.0,79,0.00,,,0.31,Wunderground v.1.15,2013-05-31 19:33:00,
2013-05-31 14:38:00,78.3,71.6,29.95,WSW,238,3.0,9.0,80,0.00,,,0.31,Wunderground v.1.15,2013-05-31 19:38:00,
2013-05-31 14:43:00,78.6,71.2,29.95,SSW,198,5.0,7.0,78,0.00,,,0.31,Wunderground v.1.15,2013-05-31 19:43:00,
2013-05-31 14:48:00,78.4,71.3,29.94,SW,229,5.0,11.0,79,0.00,,,0.31,Wunderground v.1.15,2013-05-31 19:48:00,
2013-05-31 14:53:00,78.6,71.5,29.94,WSW,257,4.0,11.0,79,0.00,,,0.31,Wunderground v.1.15,2013-05-31 19:53:00,
2013-05-31 14:58:00,78.4,71.7,29.94,WSW,242,6.0,11.0,80,0.00,,,0.31,Wunderground v.1.15,2013-05-31 19:58:00,
2013-05-31 15:03:00,78.1,71.1,29.94,WSW,243,4.0,8.0,79,0.00,,,0.31,Wunderground v.1.15,2013-05-31 20:03:00,
2013-05-31 15:08:00,78.5,71.8,29.93,SW,217,3.0,8.0,80,0.00,,,0.31,Wunderground v.1.15,2013-05-31 20:08:00,
2013-05-31 15:13:00,79.0,71.9,29.93,SW,225,5.0,12.0,79,0.00,,,0.31,Wunderground v.1.15,2013-05-31 20:13:00,
2013-05-31 15:18:00,79.4,71.9,29.93,WSW,245,4.0,12.0,78,0.00,,,0.31,Wunderground v.1.15,2013-05-31 20:18:00,
2013-05-31 15:23:00,79.2,71.7,29.93,SW,225,7.0,7.0,78,0.00,,,0.31,Wunderground v.1.15,2013-05-31 20:23:00,
2013-05-31 15:28:00,78.9,71.8,29.94,SW,228,3.0,9.0,79,0.00,,,0.31,Wunderground v.1.15,2013-05-31 20:28:00,
2013-05-31 15:33:00,78.9,71.8,29.94,WSW,252,2.0,7.0,79,0.00,,,0.31,Wunderground v.1.15,2013-05-31 20:33:00,
2013-05-31 15:38:00,78.7,71.6,29.94,SW,232,8.0,8.0,79,0.00,,,0.31,Wunderground v.1.15,2013-05-31 20:38:00,
2013-05-31 15:43:00,78.5,71.8,29.94,SSW,198,2.0,6.0,80,0.00,,,0.31,Wunderground v.1.15,2013-05-31 20:43:00,
2013-05-31 15:48:00,78.5,71.8,29.93,SSW,203,2.0,6.0,80,0.00,,,0.31,Wunderground v.1.15,2013-05-31 20:48:00,
2013-05-31 15:53:00,78.3,72.0,29.93,SSW,208,2.0,4.0,81,0.00,,,0.31,Wunderground v.1.15,2013-05-31 20:53:00,
2013-05-31 15:58:00,78.3,72.0,29.93,SW,218,2.0,6.0,81,0.00,,,0.31,Wunderground v.1.15,2013-05-31 20:58:00,
2013-05-31 16:03:00,78.8,72.5,29.93,SW,236,2.0,4.0,81,0.00,,,0.31,Wunderground v.1.15,2013-05-31 21:03:00,
2013-05-31 16:08:00,79.5,73.2,29.92,SSW,194,1.0,8.0,81,0.00,,,0.31,Wunderground v.1.15,2013-05-31 21:08:00,
2013-05-31 16:13:00,79.7,73.0,29.92,WSW,240,4.0,4.0,80,0.00,,,0.31,Wunderground v.1.15,2013-05-31 21:13:00,
2013-05-31 16:18:00,79.6,72.9,29.92,WSW,242,0.0,6.0,80,0.00,,,0.31,Wunderground v.1.15,2013-05-31 21:18:00,
2013-05-31 16:23:00,79.5,73.2,29.92,SSW,207,0.0,5.0,81,0.00,,,0.31,Wunderground v.1.15,2013-05-31 21:23:00,
2013-05-31 16:28:00,79.6,72.9,29.91,SE,141,3.0,7.0,80,0.00,,,0.31,Wunderground v.1.15,2013-05-31 21:28:00,
2013-05-31 16:33:00,79.7,73.0,29.91,SSW,208,1.0,3.0,80,0.00,,,0.31,Wunderground v.1.15,2013-05-31 21:33:00,
2013-05-31 16:38:00,80.4,73.7,29.91,South,191,2.0,5.0,80,0.00,,,0.31,Wunderground v.1.15,2013-05-31 21:38:00,
2013-05-31 16:43:00,80.7,73.6,29.91,SSW,207,1.0,5.0,79,0.00,,,0.31,Wunderground v.1.15,2013-05-31 21:43:00,
2013-05-31 16:48:00,80.8,73.3,29.91,SSW,208,1.0,5.0,78,0.00,,,0.31,Wunderground v.1.15,2013-05-31 21:48:00,
2013-05-31 16:53:00,80.6,73.5,29.91,ESE,105,3.0,7.0,79,0.00,,,0.31,Wunderground v.1.15,2013-05-31 21:53:00,
2013-05-31 16:58:00,80.4,73.3,29.91,SE,132,3.0,7.0,79,0.00,,,0.31,Wunderground v.1.15,2013-05-31 21:58:00,
2013-05-31 17:03:00,80.4,73.7,29.90,SE,139,1.0,2.0,80,0.00,,,0.31,Wunderground v.1.15,2013-05-31 22:03:00,
2013-05-31 17:08:00,80.8,74.0,29.90,SSE,147,2.0,5.0,80,0.00,,,0.31,Wunderground v.1.15,2013-05-31 22:08:00,
2013-05-31 17:13:00,81.5,74.4,29.89,SE,129,3.0,5.0,79,0.00,,,0.31,Wunderground v.1.15,2013-05-31 22:13:00,
2013-05-31 17:18:00,81.6,74.1,29.89,South,188,2.0,7.0,78,0.00,,,0.31,Wunderground v.1.15,2013-05-31 22:18:00,
2013-05-31 17:23:00,81.3,74.5,29.89,SSW,208,1.0,5.0,80,0.00,,,0.31,Wunderground v.1.15,2013-05-31 22:23:00,
2013-05-31 17:28:00,81.2,74.4,29.89,SSE,158,3.0,6.0,80,0.00,,,0.31,Wunderground v.1.15,2013-05-31 22:28:00,
2013-05-31 17:33:00,81.4,74.3,29.89,SSW,213,5.0,5.0,79,0.00,,,0.31,Wunderground v.1.15,2013-05-31 22:33:00,
2013-05-31 17:38:00,81.9,74.4,29.88,SW,221,3.0,6.0,78,0.00,,,0.31,Wunderground v.1.15,2013-05-31 22:38:00,
2013-05-31 17:43:00,81.8,73.9,29.88,SW,236,1.0,5.0,77,0.00,,,0.31,Wunderground v.1.15,2013-05-31 22:43:00,
2013-05-31 17:48:00,81.5,74.0,29.88,South,191,2.0,5.0,78,0.00,,,0.31,Wunderground v.1.15,2013-05-31 22:48:00,
2013-05-31 17:53:00,81.0,73.5,29.88,SSE,167,2.0,4.0,78,0.00,,,0.31,Wunderground v.1.15,2013-05-31 22:53:00,
2013-05-31 17:59:00,80.8,73.7,29.88,SW,225,0.0,6.0,79,0.00,,,0.31,Wunderground v.1.15,2013-05-31 22:59:00,
2013-05-31 18:04:00,80.9,73.8,29.88,SSE,153,2.0,4.0,79,0.00,,,0.31,Wunderground v.1.15,2013-05-31 23:04:00,
2013-05-31 18:09:00,81.1,73.6,29.88,SSW,200,1.0,6.0,78,0.00,,,0.31,Wunderground v.1.15,2013-05-31 23:09:00,
2013-05-31 18:14:00,81.2,73.7,29.87,SSW,201,2.0,5.0,78,0.00,,,0.31,Wunderground v.1.15,2013-05-31 23:14:00,
2013-05-31 18:19:00,81.5,74.0,29.87,SSW,213,1.0,5.0,78,0.00,,,0.31,Wunderground v.1.15,2013-05-31 23:19:00,
2013-05-31 18:24:00,82.0,73.7,29.87,South,174,6.0,7.0,76,0.00,,,0.31,Wunderground v.1.15,2013-05-31 23:24:00,
2013-05-31 18:29:00,82.0,73.7,29.87,SSW,194,2.0,7.0,76,0.00,,,0.31,Wunderground v.1.15,2013-05-31 23:29:00,
2013-05-31 18:34:00,81.6,73.3,29.87,SW,227,5.0,7.0,76,0.00,,,0.31,Wunderground v.1.15,2013-05-31 23:34:00,
2013-05-31 18:39:00,81.2,73.3,29.87,SW,229,4.0,8.0,77,0.00,,,0.31,Wunderground v.1.15,2013-05-31 23:39:00,
2013-05-31 18:44:00,81.1,73.2,29.87,SW,229,1.0,4.0,77,0.00,,,0.31,Wunderground v.1.15,2013-05-31 23:44:00,
2013-05-31 18:49:00,81.5,73.2,29.86,SSW,207,3.0,10.0,76,0.00,,,0.31,Wunderground v.1.15,2013-05-31 23:49:00,
2013-05-31 18:54:00,81.6,73.3,29.86,SW,227,3.0,5.0,76,0.00,,,0.31,Wunderground v.1.15,2013-05-31 23:54:00,
2013-05-31 18:59:00,81.7,73.4,29.86,South,177,2.0,7.0,76,0.00,,,0.31,Wunderground v.1.15,2013-05-31 23:59:00,
2013-05-31 19:04:00,81.4,73.5,29.86,SSW,197,5.0,6.0,77,0.00,,,0.31,Wunderground v.1.15,2013-06-01 00:04:00,
2013-05-31 19:09:00,81.1,73.6,29.86,SSE,158,0.0,6.0,78,0.00,,,0.31,Wunderground v.1.15,2013-06-01 00:09:00,
2013-05-31 19:14:00,80.8,73.3,29.86,WNW,297,1.0,5.0,78,0.00,,,0.31,Wunderground v.1.15,2013-06-01 00:14:00,
2013-05-31 19:19:00,80.8,73.3,29.86,SW,215,1.0,8.0,78,0.00,,,0.31,Wunderground v.1.15,2013-06-01 00:19:00,
2013-05-31 19:24:00,80.9,73.4,29.86,SSE,148,1.0,5.0,78,0.00,,,0.31,Wunderground v.1.15,2013-06-01 00:24:00,
2013-05-31 19:29:00,80.7,73.2,29.87,SW,229,0.0,5.0,78,0.00,,,0.31,Wunderground v.1.15,2013-06-01 00:29:00,
2013-05-31 19:34:00,80.4,73.3,29.87,South,172,1.0,4.0,79,0.00,,,0.31,Wunderground v.1.15,2013-06-01 00:34:00,
2013-05-31 19:39:00,80.1,73.0,29.87,SW,214,1.0,7.0,79,0.00,,,0.31,Wunderground v.1.15,2013-06-01 00:39:00,
2013-05-31 19:44:00,80.0,72.9,29.86,SW,224,3.0,6.0,79,0.00,,,0.31,Wunderground v.1.15,2013-06-01 00:44:00,
2013-05-31 19:49:00,79.7,73.0,29.85,SSW,210,1.0,6.0,80,0.00,,,0.31,Wunderground v.1.15,2013-06-01 00:49:00,
2013-05-31 19:54:00,79.5,72.8,29.85,SSW,200,4.0,5.0,80,0.00,,,0.31,Wunderground v.1.15,2013-06-01 00:54:00,
2013-05-31 19:59:00,79.3,73.0,29.85,SSE,165,1.0,9.0,81,0.00,,,0.31,Wunderground v.1.15,2013-06-01 00:59:00,
2013-05-31 20:04:00,79.1,72.8,29.85,SSE,165,1.0,8.0,81,0.00,,,0.31,Wunderground v.1.15,2013-06-01 01:04:00,
2013-05-31 20:09:00,79.0,72.7,29.85,SW,229,4.0,8.0,81,0.00,,,0.31,Wunderground v.1.15,2013-06-01 01:09:00,
2013-05-31 20:14:00,78.9,72.6,29.85,South,181,1.0,5.0,81,0.00,,,0.31,Wunderground v.1.15,2013-06-01 01:14:00,
2013-05-31 20:19:00,78.8,72.8,29.85,SSW,203,1.0,6.0,82,0.00,,,0.31,Wunderground v.1.15,2013-06-01 01:19:00,
2013-05-31 20:24:00,78.7,72.7,29.84,SE,129,2.0,5.0,82,0.00,,,0.31,Wunderground v.1.15,2013-06-01 01:24:00,
2013-05-31 20:29:00,78.6,72.6,29.84,SSE,164,1.0,6.0,82,0.00,,,0.31,Wunderground v.1.15,2013-06-01 01:29:00,
2013-05-31 20:34:00,78.5,72.9,29.85,South,169,2.0,3.0,83,0.00,,,0.31,Wunderground v.1.15,2013-06-01 01:34:00,
2013-05-31 20:39:00,78.3,72.7,29.85,South,187,2.0,3.0,83,0.00,,,0.31,Wunderground v.1.15,2013-06-01 01:39:00,
2013-05-31 20:44:00,78.3,72.7,29.85,SSW,198,1.0,4.0,83,0.00,,,0.31,Wunderground v.1.15,2013-06-01 01:44:00,
2013-05-31 20:49:00,78.2,72.6,29.85,SSE,163,2.0,5.0,83,0.00,,,0.31,Wunderground v.1.15,2013-06-01 01:49:00,
2013-05-31 20:54:00,78.1,72.5,29.85,SE,124,1.0,4.0,83,0.00,,,0.31,Wunderground v.1.15,2013-06-01 01:54:00,
2013-05-31 20:59:00,78.0,72.8,29.86,South,180,3.0,5.0,84,0.00,,,0.31,Wunderground v.1.15,2013-06-01 01:59:00,
2013-05-31 21:04:00,77.9,72.7,29.85,South,176,1.0,4.0,84,0.00,,,0.31,Wunderground v.1.15,2013-06-01 02:04:00,
2013-05-31 21:09:00,77.9,72.7,29.86,SSW,210,4.0,5.0,84,0.00,,,0.31,Wunderground v.1.15,2013-06-01 02:09:00,
2013-05-31 21:14:00,77.9,72.7,29.86,SSE,160,2.0,7.0,84,0.00,,,0.31,Wunderground v.1.15,2013-06-01 02:14:00,
2013-05-31 21:19:00,77.9,72.7,29.86,SSW,200,3.0,7.0,84,0.00,,,0.31,Wunderground v.1.15,2013-06-01 02:19:00,
2013-05-31 21:24:00,77.9,72.7,29.86,SE,131,3.0,5.0,84,0.00,,,0.31,Wunderground v.1.15,2013-06-01 02:24:00,
2013-05-31 21:29:00,77.8,72.6,29.86,SSE,163,1.0,6.0,84,0.00,,,0.31,Wunderground v.1.15,2013-06-01 02:29:00,
2013-05-31 21:34:00,77.8,72.6,29.87,SSE,156,2.0,5.0,84,0.00,,,0.31,Wunderground v.1.15,2013-06-01 02:34:00,
2013-05-31 21:39:00,77.8,72.6,29.88,SE,131,2.0,6.0,84,0.00,,,0.31,Wunderground v.1.15,2013-06-01 02:39:00,
2013-05-31 21:44:00,77.8,72.6,29.88,WSW,242,3.0,3.0,84,0.00,,,0.31,Wunderground v.1.15,2013-06-01 02:44:00,
2013-05-31 21:49:00,77.8,72.6,29.88,SSE,150,2.0,5.0,84,0.00,,,0.31,Wunderground v.1.15,2013-06-01 02:49:00,
2013-05-31 21:54:00,77.7,72.5,29.88,SW,224,3.0,4.0,84,0.00,,,0.31,Wunderground v.1.15,2013-06-01 02:54:00,
2013-05-31 21:59:00,77.7,72.5,29.88,SW,229,2.0,4.0,84,0.00,,,0.31,Wunderground v.1.15,2013-06-01 02:59:00,
2013-05-31 22:04:00,77.7,72.5,29.89,SSW,204,1.0,6.0,84,0.00,,,0.31,Wunderground v.1.15,2013-06-01 03:04:00,
2013-05-31 22:09:00,77.7,72.5,29.89,SW,224,5.0,7.0,84,0.00,,,0.31,Wunderground v.1.15,2013-06-01 03:09:00,
2013-05-31 22:14:00,77.7,72.5,29.89,SW,221,1.0,7.0,84,0.00,,,0.31,Wunderground v.1.15,2013-06-01 03:14:00,
2013-05-31 22:19:00,77.7,72.5,29.90,SSW,212,4.0,7.0,84,0.00,,,0.31,Wunderground v.1.15,2013-06-01 03:19:00,
2013-05-31 22:24:00,77.7,72.5,29.90,South,174,0.0,5.0,84,0.00,,,0.31,Wunderground v.1.15,2013-06-01 03:24:00,
2013-05-31 22:29:00,77.7,72.5,29.90,South,174,3.0,5.0,84,0.00,,,0.31,Wunderground v.1.15,2013-06-01 03:29:00,
2013-05-31 22:34:00,77.7,72.5,29.90,SW,225,2.0,8.0,84,0.00,,,0.31,Wunderground v.1.15,2013-06-01 03:34:00,
2013-05-31 22:39:00,77.7,72.5,29.90,West,263,1.0,8.0,84,0.00,,,0.31,Wunderground v.1.15,2013-06-01 03:39:00,
2013-05-31 22:44:00,77.7,72.5,29.89,SW,218,3.0,6.0,84,0.00,,,0.31,Wunderground v.1.15,2013-06-01 03:44:00,
2013-05-31 22:49:00,77.6,72.4,29.89,SW,224,4.0,8.0,84,0.00,,,0.31,Wunderground v.1.15,2013-06-01 03:49:00,
2013-05-31 22:54:00,77.5,72.3,29.89,SSW,210,2.0,6.0,84,0.00,,,0.31,Wunderground v.1.15,2013-06-01 03:54:00,
2013-05-31 22:59:00,77.5,72.3,29.89,West,268,2.0,6.0,84,0.00,,,0.31,Wunderground v.1.15,2013-06-01 03:59:00,
2013-05-31 23:01:00,77.5,72.3,29.89,SW,228,1.0,2.0,84,0.00,,,0.31,Wunderground v.1.15,2013-06-01 04:01:00,
2013-05-31 23:06:00,77.6,72.4,29.88,SSE,150,2.0,9.0,84,0.00,,,0.31,Wunderground v.1.15,2013-06-01 04:06:00,
2013-05-31 23:11:00,77.6,72.4,29.88,South,190,2.0,3.0,84,0.00,,,0.31,Wunderground v.1.15,2013-06-01 04:11:00,
2013-05-31 23:16:00,77.6,72.4,29.88,SW,215,6.0,7.0,84,0.00,,,0.31,Wunderground v.1.15,2013-06-01 04:16:00,
2013-05-31 23:21:00,77.6,72.4,29.88,South,180,2.0,4.0,84,0.00,,,0.31,Wunderground v.1.15,2013-06-01 04:21:00,
2013-05-31 23:26:00,77.5,72.3,29.87,SSE,158,2.0,8.0,84,0.00,,,0.31,Wunderground v.1.15,2013-06-01 04:26:00,
2013-05-31 23:31:00,77.5,72.3,29.87,South,176,6.0,12.0,84,0.00,,,0.31,Wunderground v.1.15,2013-06-01 04:31:00,
2013-05-31 23:36:00,77.5,72.3,29.87,SSE,152,1.0,12.0,84,0.00,,,0.31,Wunderground v.1.15,2013-06-01 04:36:00,
2013-05-31 23:41:00,77.5,72.3,29.87,SE,142,4.0,8.0,84,0.00,,,0.31,Wunderground v.1.15,2013-06-01 04:41:00,
2013-05-31 23:46:00,77.5,72.3,29.87,South,184,4.0,11.0,84,0.00,,,0.31,Wunderground v.1.15,2013-06-01 04:46:00,
2013-05-31 23:51:00,77.5,71.9,29.87,SSE,148,2.0,9.0,83,0.00,,,0.31,Wunderground v.1.15,2013-06-01 04:51:00,
2013-05-31 23:56:00,77.5,72.3,29.88,SSE,150,5.0,9.0,84,0.00,,,0.31,Wunderground v.1.15,2013-06-01 04:56:00,